owner,sensor,date,latitude,longitude,air_temperature,qcFlag 
COMPS,ioos:station:USF.COMPS:C13:1,2017-02-01T00:05:00Z,26.0630,-83.0730,18.46,1111122 
COMPS,ioos:station:USF.COMPS:C13:1,2017-02-01T00:35:00Z,26.0630,-83.0730,18.59,1111122 
COMPS,ioos:station:USF.COMPS:C13:1,2017-02-01T01:05:00Z,26.0630,-83.0730,18.69,1111122 
COMPS,ioos:station:USF.COMPS:C13:1,2017-02-01T01:35:00Z,26.0630,-83.0730,18.73,1111122 
COMPS,ioos:station:USF.COMPS:C13:1,2017-02-01T02:05:00Z,26.0630,-83.0730,18.87,1111122 
COMPS,ioos:station:USF.COMPS:C13:1,2017-02-01T02:35:00Z,26.0630,-83.0730,18.99,1111122 
COMPS,ioos:station:USF.COMPS:C13:1,2017-02-01T03:05:00Z,26.0630,-83.0730,19.02,1111122 
COMPS,ioos:station:USF.COMPS:C13:1,2017-02-01T03:35:00Z,26.0630,-83.0730,19.06,1111122 
COMPS,ioos:station:USF.COMPS:C13:1,2017-02-01T04:05:00Z,26.0630,-83.0730,19.0,1111122 
COMPS,ioos:station:USF.COMPS:C13:1,2017-02-01T04:35:00Z,26.0630,-83.0730,19.1,1111122 
COMPS,ioos:station:USF.COMPS:C13:1,2017-02-01T06:05:00Z,26.0630,-83.0730,19.33,1111122 
COMPS,ioos:station:USF.COMPS:C13:1,2017-02-01T06:35:00Z,26.0630,-83.0730,19.28,1111122 
COMPS,ioos:station:USF.COMPS:C13:1,2017-02-01T07:05:00Z,26.0630,-83.0730,19.33,1111122 
COMPS,ioos:station:USF.COMPS:C13:1,2017-02-01T07:35:00Z,26.0630,-83.0730,19.35,1111122 
COMPS,ioos:station:USF.COMPS:C13:1,2017-02-01T08:05:00Z,26.0630,-83.0730,19.38,1111122 
COMPS,ioos:station:USF.COMPS:C13:1,2017-02-01T08:35:00Z,26.0630,-83.0730,19.33,1111122 
COMPS,ioos:station:USF.COMPS:C13:1,2017-02-01T09:05:00Z,26.0630,-83.0730,19.37,1111122 
COMPS,ioos:station:USF.COMPS:C13:1,2017-02-01T09:35:00Z,26.0630,-83.0730,19.25,1111122 
COMPS,ioos:station:USF.COMPS:C13:1,2017-02-01T10:05:00Z,26.0630,-83.0730,19.36,1111122 
COMPS,ioos:station:USF.COMPS:C13:1,2017-02-01T10:35:00Z,26.0630,-83.0730,19.39,1111122 
COMPS,ioos:station:USF.COMPS:C13:1,2017-02-01T11:05:00Z,26.0630,-83.0730,19.49,1111122 
COMPS,ioos:station:USF.COMPS:C13:1,2017-02-01T11:35:00Z,26.0630,-83.0730,19.63,1111122 
COMPS,ioos:station:USF.COMPS:C13:1,2017-02-01T13:05:00Z,26.0630,-83.0730,20.32,1111122 
COMPS,ioos:station:USF.COMPS:C13:1,2017-02-01T13:35:00Z,26.0630,-83.0730,20.36,1111122 
COMPS,ioos:station:USF.COMPS:C13:1,2017-02-01T14:05:00Z,26.0630,-83.0730,20.3,1111122 
COMPS,ioos:station:USF.COMPS:C13:1,2017-02-01T14:35:00Z,26.0630,-83.0730,20.28,1111122 
COMPS,ioos:station:USF.COMPS:C13:1,2017-02-01T15:05:00Z,26.0630,-83.0730,20.33,1111122 
COMPS,ioos:station:USF.COMPS:C13:1,2017-02-01T15:35:00Z,26.0630,-83.0730,20.27,1111122 
COMPS,ioos:station:USF.COMPS:C13:1,2017-02-01T16:05:00Z,26.0630,-83.0730,20.34,1111122 
COMPS,ioos:station:USF.COMPS:C13:1,2017-02-01T16:35:00Z,26.0630,-83.0730,20.39,1111122 
COMPS,ioos:station:USF.COMPS:C13:1,2017-02-01T17:05:00Z,26.0630,-83.0730,20.54,1111122 
COMPS,ioos:station:USF.COMPS:C13:1,2017-02-01T17:35:00Z,26.0630,-83.0730,20.59,1111122 
COMPS,ioos:station:USF.COMPS:C13:1,2017-02-01T19:05:00Z,26.0630,-83.0730,20.28,1111122 
COMPS,ioos:station:USF.COMPS:C13:1,2017-02-01T19:35:00Z,26.0630,-83.0730,20.24,1111122 
COMPS,ioos:station:USF.COMPS:C13:1,2017-02-01T22:05:00Z,26.0630,-83.0730,20.96,1111122 
COMPS,ioos:station:USF.COMPS:C13:1,2017-02-01T22:35:00Z,26.0630,-83.0730,20.88,1111122 
COMPS,ioos:station:USF.COMPS:C13:1,2017-02-01T23:05:00Z,26.0630,-83.0730,20.62,1111122 
COMPS,ioos:station:USF.COMPS:C13:1,2017-02-01T23:35:00Z,26.0630,-83.0730,20.51,1111122 
COMPS,ioos:station:USF.COMPS:C13:1,2017-02-02T02:05:00Z,26.0630,-83.0730,20.63,1111122 
COMPS,ioos:station:USF.COMPS:C13:1,2017-02-02T02:35:00Z,26.0630,-83.0730,20.65,1111122 
COMPS,ioos:station:USF.COMPS:C13:1,2017-02-02T03:05:00Z,26.0630,-83.0730,20.65,1111122 
COMPS,ioos:station:USF.COMPS:C13:1,2017-02-02T03:35:00Z,26.0630,-83.0730,20.58,1111122 
COMPS,ioos:station:USF.COMPS:C13:1,2017-02-02T04:05:00Z,26.0630,-83.0730,20.6,1111122 
COMPS,ioos:station:USF.COMPS:C13:1,2017-02-02T04:35:00Z,26.0630,-83.0730,20.68,1111122 
COMPS,ioos:station:USF.COMPS:C13:1,2017-02-02T05:05:00Z,26.0630,-83.0730,20.64,1111122 
COMPS,ioos:station:USF.COMPS:C13:1,2017-02-02T05:35:00Z,26.0630,-83.0730,20.64,1111122 
COMPS,ioos:station:USF.COMPS:C13:1,2017-02-02T06:05:00Z,26.0630,-83.0730,20.67,1111122 
COMPS,ioos:station:USF.COMPS:C13:1,2017-02-02T06:35:00Z,26.0630,-83.0730,20.65,1111122 
COMPS,ioos:station:USF.COMPS:C13:1,2017-02-02T07:05:00Z,26.0630,-83.0730,20.31,1111122 
COMPS,ioos:station:USF.COMPS:C13:1,2017-02-02T07:35:00Z,26.0630,-83.0730,19.83,1111122 
COMPS,ioos:station:USF.COMPS:C13:1,2017-02-02T08:05:00Z,26.0630,-83.0730,19.82,1111122 
COMPS,ioos:station:USF.COMPS:C13:1,2017-02-02T08:35:00Z,26.0630,-83.0730,19.92,1111122 
COMPS,ioos:station:USF.COMPS:C13:1,2017-02-02T09:05:00Z,26.0630,-83.0730,19.69,1111122 
COMPS,ioos:station:USF.COMPS:C13:1,2017-02-02T09:35:00Z,26.0630,-83.0730,19.84,1111122 
COMPS,ioos:station:USF.COMPS:C13:1,2017-02-02T10:05:00Z,26.0630,-83.0730,19.75,1111122 
COMPS,ioos:station:USF.COMPS:C13:1,2017-02-02T10:35:00Z,26.0630,-83.0730,19.83,1111122 
COMPS,ioos:station:USF.COMPS:C13:1,2017-02-02T11:05:00Z,26.0630,-83.0730,19.71,1111122 
COMPS,ioos:station:USF.COMPS:C13:1,2017-02-02T11:35:00Z,26.0630,-83.0730,19.69,1111122 
COMPS,ioos:station:USF.COMPS:C13:1,2017-02-02T12:05:00Z,26.0630,-83.0730,19.96,1111122 
COMPS,ioos:station:USF.COMPS:C13:1,2017-02-02T12:35:00Z,26.0630,-83.0730,20.12,1111122 
COMPS,ioos:station:USF.COMPS:C13:1,2017-02-02T13:05:00Z,26.0630,-83.0730,20.26,1111122 
COMPS,ioos:station:USF.COMPS:C13:1,2017-02-02T13:35:00Z,26.0630,-83.0730,20.55,1111122 
COMPS,ioos:station:USF.COMPS:C13:1,2017-02-02T14:05:00Z,26.0630,-83.0730,20.79,1111122 
COMPS,ioos:station:USF.COMPS:C13:1,2017-02-02T14:35:00Z,26.0630,-83.0730,20.85,1111122 
COMPS,ioos:station:USF.COMPS:C13:1,2017-02-02T15:05:00Z,26.0630,-83.0730,20.88,1111122 
COMPS,ioos:station:USF.COMPS:C13:1,2017-02-02T15:35:00Z,26.0630,-83.0730,20.74,1111122 
COMPS,ioos:station:USF.COMPS:C13:1,2017-02-02T16:05:00Z,26.0630,-83.0730,20.77,1111122 
COMPS,ioos:station:USF.COMPS:C13:1,2017-02-02T16:35:00Z,26.0630,-83.0730,20.72,1111122 
COMPS,ioos:station:USF.COMPS:C13:1,2017-02-02T17:05:00Z,26.0630,-83.0730,20.77,1111122 
COMPS,ioos:station:USF.COMPS:C13:1,2017-02-02T17:35:00Z,26.0630,-83.0730,20.8,1111122 
COMPS,ioos:station:USF.COMPS:C13:1,2017-02-02T18:05:00Z,26.0630,-83.0730,20.94,1111122 
COMPS,ioos:station:USF.COMPS:C13:1,2017-02-02T18:35:00Z,26.0630,-83.0730,20.94,1111122 
COMPS,ioos:station:USF.COMPS:C13:1,2017-02-02T19:05:00Z,26.0630,-83.0730,21.18,1111122 
COMPS,ioos:station:USF.COMPS:C13:1,2017-02-02T19:35:00Z,26.0630,-83.0730,21.13,1111122 
COMPS,ioos:station:USF.COMPS:C13:1,2017-02-02T20:05:00Z,26.0630,-83.0730,21.14,1111122 
COMPS,ioos:station:USF.COMPS:C13:1,2017-02-02T20:35:00Z,26.0630,-83.0730,21.28,1111122 
COMPS,ioos:station:USF.COMPS:C13:1,2017-02-02T21:05:00Z,26.0630,-83.0730,21.84,1111122 
COMPS,ioos:station:USF.COMPS:C13:1,2017-02-02T21:35:00Z,26.0630,-83.0730,21.81,1111122 
COMPS,ioos:station:USF.COMPS:C13:1,2017-02-02T22:05:00Z,26.0630,-83.0730,21.86,1111122 
COMPS,ioos:station:USF.COMPS:C13:1,2017-02-02T22:35:00Z,26.0630,-83.0730,21.56,1111122 
COMPS,ioos:station:USF.COMPS:C13:1,2017-02-02T23:05:00Z,26.0630,-83.0730,21.18,1111122 
COMPS,ioos:station:USF.COMPS:C13:1,2017-02-02T23:35:00Z,26.0630,-83.0730,20.94,1111122 
COMPS,ioos:station:USF.COMPS:C13:1,2017-02-03T00:05:00Z,26.0630,-83.0730,20.83,1111122 
COMPS,ioos:station:USF.COMPS:C13:1,2017-02-03T00:35:00Z,26.0630,-83.0730,20.83,1111122 
COMPS,ioos:station:USF.COMPS:C13:1,2017-02-03T01:05:00Z,26.0630,-83.0730,20.81,1111122 
COMPS,ioos:station:USF.COMPS:C13:1,2017-02-03T01:35:00Z,26.0630,-83.0730,20.92,1111122 
COMPS,ioos:station:USF.COMPS:C13:1,2017-02-03T02:05:00Z,26.0630,-83.0730,20.95,1111122 
COMPS,ioos:station:USF.COMPS:C13:1,2017-02-03T02:35:00Z,26.0630,-83.0730,21.11,1111122 
COMPS,ioos:station:USF.COMPS:C13:1,2017-02-03T03:05:00Z,26.0630,-83.0730,21.19,1111122 
COMPS,ioos:station:USF.COMPS:C13:1,2017-02-03T03:35:00Z,26.0630,-83.0730,21.14,1111122 
COMPS,ioos:station:USF.COMPS:C13:1,2017-02-03T04:05:00Z,26.0630,-83.0730,21.23,1111122 
COMPS,ioos:station:USF.COMPS:C13:1,2017-02-03T04:35:00Z,26.0630,-83.0730,21.22,1111122 
COMPS,ioos:station:USF.COMPS:C13:1,2017-02-03T05:05:00Z,26.0630,-83.0730,20.98,1111122 
COMPS,ioos:station:USF.COMPS:C13:1,2017-02-03T05:35:00Z,26.0630,-83.0730,20.69,1111122 
COMPS,ioos:station:USF.COMPS:C13:1,2017-02-03T06:05:00Z,26.0630,-83.0730,20.51,1111122 
COMPS,ioos:station:USF.COMPS:C13:1,2017-02-03T06:35:00Z,26.0630,-83.0730,20.21,1111122 
COMPS,ioos:station:USF.COMPS:C13:1,2017-02-03T07:05:00Z,26.0630,-83.0730,19.6,1111122 
COMPS,ioos:station:USF.COMPS:C13:1,2017-02-03T07:35:00Z,26.0630,-83.0730,19.94,1111122 
COMPS,ioos:station:USF.COMPS:C13:1,2017-02-03T08:05:00Z,26.0630,-83.0730,20.31,1111122 
COMPS,ioos:station:USF.COMPS:C13:1,2017-02-03T08:35:00Z,26.0630,-83.0730,20.48,1111122 
COMPS,ioos:station:USF.COMPS:C13:1,2017-02-03T09:05:00Z,26.0630,-83.0730,20.35,1111122 
COMPS,ioos:station:USF.COMPS:C13:1,2017-02-03T09:35:00Z,26.0630,-83.0730,20.52,1111122 
COMPS,ioos:station:USF.COMPS:C13:1,2017-02-03T10:05:00Z,26.0630,-83.0730,20.63,1111122 
COMPS,ioos:station:USF.COMPS:C13:1,2017-02-03T10:35:00Z,26.0630,-83.0730,20.74,1111122 
COMPS,ioos:station:USF.COMPS:C13:1,2017-02-03T11:05:00Z,26.0630,-83.0730,20.65,1111122 
COMPS,ioos:station:USF.COMPS:C13:1,2017-02-03T11:35:00Z,26.0630,-83.0730,20.47,1111122 
COMPS,ioos:station:USF.COMPS:C13:1,2017-02-03T12:05:00Z,26.0630,-83.0730,20.43,1111122 
COMPS,ioos:station:USF.COMPS:C13:1,2017-02-03T12:35:00Z,26.0630,-83.0730,20.49,1111122 
COMPS,ioos:station:USF.COMPS:C13:1,2017-02-03T13:05:00Z,26.0630,-83.0730,20.83,1111122 
COMPS,ioos:station:USF.COMPS:C13:1,2017-02-03T13:35:00Z,26.0630,-83.0730,20.87,1111122 
COMPS,ioos:station:USF.COMPS:C13:1,2017-02-03T14:05:00Z,26.0630,-83.0730,20.97,1111122 
COMPS,ioos:station:USF.COMPS:C13:1,2017-02-03T14:35:00Z,26.0630,-83.0730,21.22,1111122 
COMPS,ioos:station:USF.COMPS:C13:1,2017-02-03T15:05:00Z,26.0630,-83.0730,21.26,1111122 
COMPS,ioos:station:USF.COMPS:C13:1,2017-02-03T15:35:00Z,26.0630,-83.0730,21.24,1111122 
COMPS,ioos:station:USF.COMPS:C13:1,2017-02-03T16:05:00Z,26.0630,-83.0730,21.28,1111122 
COMPS,ioos:station:USF.COMPS:C13:1,2017-02-03T16:35:00Z,26.0630,-83.0730,21.41,1111122 
COMPS,ioos:station:USF.COMPS:C13:1,2017-02-03T17:05:00Z,26.0630,-83.0730,21.43,1111122 
COMPS,ioos:station:USF.COMPS:C13:1,2017-02-03T17:35:00Z,26.0630,-83.0730,21.46,1111122 
COMPS,ioos:station:USF.COMPS:C13:1,2017-02-03T18:05:00Z,26.0630,-83.0730,21.59,1111122 
COMPS,ioos:station:USF.COMPS:C13:1,2017-02-03T18:35:00Z,26.0630,-83.0730,21.89,1111122 
COMPS,ioos:station:USF.COMPS:C13:1,2017-02-03T19:05:00Z,26.0630,-83.0730,21.57,1111122 
COMPS,ioos:station:USF.COMPS:C13:1,2017-02-03T19:35:00Z,26.0630,-83.0730,21.3,1111122 
COMPS,ioos:station:USF.COMPS:C13:1,2017-02-03T20:05:00Z,26.0630,-83.0730,21.13,1111122 
COMPS,ioos:station:USF.COMPS:C13:1,2017-02-03T20:35:00Z,26.0630,-83.0730,21.19,1111122 
COMPS,ioos:station:USF.COMPS:C13:1,2017-02-03T21:05:00Z,26.0630,-83.0730,21.33,1111122 
COMPS,ioos:station:USF.COMPS:C13:1,2017-02-03T21:35:00Z,26.0630,-83.0730,21.59,1111122 
COMPS,ioos:station:USF.COMPS:C13:1,2017-02-03T22:05:00Z,26.0630,-83.0730,21.75,1111122 
COMPS,ioos:station:USF.COMPS:C13:1,2017-02-03T22:35:00Z,26.0630,-83.0730,21.43,1111122 
COMPS,ioos:station:USF.COMPS:C13:1,2017-02-03T23:05:00Z,26.0630,-83.0730,21.16,1111122 
COMPS,ioos:station:USF.COMPS:C13:1,2017-02-03T23:35:00Z,26.0630,-83.0730,20.93,1111122 
COMPS,ioos:station:USF.COMPS:C13:1,2017-02-04T00:05:00Z,26.0630,-83.0730,20.88,1111122 
COMPS,ioos:station:USF.COMPS:C13:1,2017-02-04T00:35:00Z,26.0630,-83.0730,21.02,1111122 
COMPS,ioos:station:USF.COMPS:C13:1,2017-02-04T01:05:00Z,26.0630,-83.0730,21.08,1111122 
COMPS,ioos:station:USF.COMPS:C13:1,2017-02-04T01:35:00Z,26.0630,-83.0730,21.2,1111122 
COMPS,ioos:station:USF.COMPS:C13:1,2017-02-04T02:05:00Z,26.0630,-83.0730,21.23,1111122 
COMPS,ioos:station:USF.COMPS:C13:1,2017-02-04T02:35:00Z,26.0630,-83.0730,21.3,1111122 
COMPS,ioos:station:USF.COMPS:C13:1,2017-02-04T03:05:00Z,26.0630,-83.0730,21.3,1111122 
COMPS,ioos:station:USF.COMPS:C13:1,2017-02-04T03:35:00Z,26.0630,-83.0730,21.49,1111122 
COMPS,ioos:station:USF.COMPS:C13:1,2017-02-04T04:05:00Z,26.0630,-83.0730,21.53,1111122 
COMPS,ioos:station:USF.COMPS:C13:1,2017-02-04T04:35:00Z,26.0630,-83.0730,21.39,1111122 
COMPS,ioos:station:USF.COMPS:C13:1,2017-02-04T05:05:00Z,26.0630,-83.0730,21.29,1111122 
COMPS,ioos:station:USF.COMPS:C13:1,2017-02-04T05:35:00Z,26.0630,-83.0730,21.34,1111122 
COMPS,ioos:station:USF.COMPS:C13:1,2017-02-04T06:05:00Z,26.0630,-83.0730,21.25,1111122 
COMPS,ioos:station:USF.COMPS:C13:1,2017-02-04T06:35:00Z,26.0630,-83.0730,21.22,1111122 
COMPS,ioos:station:USF.COMPS:C13:1,2017-02-04T07:05:00Z,26.0630,-83.0730,21.21,1111122 
COMPS,ioos:station:USF.COMPS:C13:1,2017-02-04T07:35:00Z,26.0630,-83.0730,21.12,1111122 
COMPS,ioos:station:USF.COMPS:C13:1,2017-02-04T08:05:00Z,26.0630,-83.0730,21.08,1111122 
COMPS,ioos:station:USF.COMPS:C13:1,2017-02-04T08:35:00Z,26.0630,-83.0730,21.04,1111122 
COMPS,ioos:station:USF.COMPS:C13:1,2017-02-04T09:05:00Z,26.0630,-83.0730,20.93,1111122 
COMPS,ioos:station:USF.COMPS:C13:1,2017-02-04T09:35:00Z,26.0630,-83.0730,20.99,1111122 
COMPS,ioos:station:USF.COMPS:C13:1,2017-02-04T10:05:00Z,26.0630,-83.0730,21.07,1111122 
COMPS,ioos:station:USF.COMPS:C13:1,2017-02-04T10:35:00Z,26.0630,-83.0730,20.96,1111122 
COMPS,ioos:station:USF.COMPS:C13:1,2017-02-04T11:05:00Z,26.0630,-83.0730,20.74,1111122 
COMPS,ioos:station:USF.COMPS:C13:1,2017-02-04T11:35:00Z,26.0630,-83.0730,20.58,1111122 
COMPS,ioos:station:USF.COMPS:C13:1,2017-02-04T12:05:00Z,26.0630,-83.0730,20.62,1111122 
COMPS,ioos:station:USF.COMPS:C13:1,2017-02-04T12:35:00Z,26.0630,-83.0730,20.49,1111122 
COMPS,ioos:station:USF.COMPS:C13:1,2017-02-04T13:05:00Z,26.0630,-83.0730,20.34,1111122 
COMPS,ioos:station:USF.COMPS:C13:1,2017-02-04T13:35:00Z,26.0630,-83.0730,20.43,1111122 
COMPS,ioos:station:USF.COMPS:C13:1,2017-02-04T14:05:00Z,26.0630,-83.0730,20.28,1111122 
COMPS,ioos:station:USF.COMPS:C13:1,2017-02-04T14:35:00Z,26.0630,-83.0730,20.27,1111122 
COMPS,ioos:station:USF.COMPS:C13:1,2017-02-04T15:05:00Z,26.0630,-83.0730,19.9,1111122 
COMPS,ioos:station:USF.COMPS:C13:1,2017-02-04T15:35:00Z,26.0630,-83.0730,19.69,1111122 
COMPS,ioos:station:USF.COMPS:C13:1,2017-02-04T16:05:00Z,26.0630,-83.0730,19.83,1111122 
COMPS,ioos:station:USF.COMPS:C13:1,2017-02-04T16:35:00Z,26.0630,-83.0730,19.72,1111122 
COMPS,ioos:station:USF.COMPS:C13:1,2017-02-04T17:05:00Z,26.0630,-83.0730,19.68,1111122 
COMPS,ioos:station:USF.COMPS:C13:1,2017-02-04T17:35:00Z,26.0630,-83.0730,19.31,1111122 
COMPS,ioos:station:USF.COMPS:C13:1,2017-02-04T18:05:00Z,26.0630,-83.0730,19.01,1111122 
COMPS,ioos:station:USF.COMPS:C13:1,2017-02-04T18:35:00Z,26.0630,-83.0730,18.85,1111122 
COMPS,ioos:station:USF.COMPS:C13:1,2017-02-04T19:05:00Z,26.0630,-83.0730,18.7,1111122 
COMPS,ioos:station:USF.COMPS:C13:1,2017-02-04T19:35:00Z,26.0630,-83.0730,18.94,1111122 
COMPS,ioos:station:USF.COMPS:C13:1,2017-02-04T20:05:00Z,26.0630,-83.0730,19.28,1111122 
COMPS,ioos:station:USF.COMPS:C13:1,2017-02-04T20:35:00Z,26.0630,-83.0730,19.43,1111122 
COMPS,ioos:station:USF.COMPS:C13:1,2017-02-04T21:05:00Z,26.0630,-83.0730,19.75,1111122 
COMPS,ioos:station:USF.COMPS:C13:1,2017-02-04T21:35:00Z,26.0630,-83.0730,20.28,1111122 
COMPS,ioos:station:USF.COMPS:C13:1,2017-02-04T22:05:00Z,26.0630,-83.0730,20.49,1111122 
COMPS,ioos:station:USF.COMPS:C13:1,2017-02-04T22:35:00Z,26.0630,-83.0730,20.68,1111122 
COMPS,ioos:station:USF.COMPS:C13:1,2017-02-04T23:05:00Z,26.0630,-83.0730,20.43,1111122 
COMPS,ioos:station:USF.COMPS:C13:1,2017-02-04T23:35:00Z,26.0630,-83.0730,20.42,1111122 
COMPS,ioos:station:USF.COMPS:C13:1,2017-02-05T00:05:00Z,26.0630,-83.0730,20.5,1111122 
COMPS,ioos:station:USF.COMPS:C13:1,2017-02-05T00:35:00Z,26.0630,-83.0730,20.58,1111122 
COMPS,ioos:station:USF.COMPS:C13:1,2017-02-05T01:05:00Z,26.0630,-83.0730,20.68,1111122 
COMPS,ioos:station:USF.COMPS:C13:1,2017-02-05T01:35:00Z,26.0630,-83.0730,20.7,1111122 
COMPS,ioos:station:USF.COMPS:C13:1,2017-02-05T02:05:00Z,26.0630,-83.0730,20.78,1111122 
COMPS,ioos:station:USF.COMPS:C13:1,2017-02-05T02:35:00Z,26.0630,-83.0730,20.77,1111122 
COMPS,ioos:station:USF.COMPS:C13:1,2017-02-05T03:05:00Z,26.0630,-83.0730,20.74,1111122 
COMPS,ioos:station:USF.COMPS:C13:1,2017-02-05T03:35:00Z,26.0630,-83.0730,20.87,1111122 
COMPS,ioos:station:USF.COMPS:C13:1,2017-02-05T04:05:00Z,26.0630,-83.0730,20.82,1111122 
COMPS,ioos:station:USF.COMPS:C13:1,2017-02-05T04:35:00Z,26.0630,-83.0730,20.83,1111122 
COMPS,ioos:station:USF.COMPS:C13:1,2017-02-05T05:05:00Z,26.0630,-83.0730,20.72,1111122 
COMPS,ioos:station:USF.COMPS:C13:1,2017-02-05T05:35:00Z,26.0630,-83.0730,20.7,1111122 
COMPS,ioos:station:USF.COMPS:C13:1,2017-02-05T06:05:00Z,26.0630,-83.0730,20.6,1111122 
COMPS,ioos:station:USF.COMPS:C13:1,2017-02-05T06:35:00Z,26.0630,-83.0730,20.41,1111122 
COMPS,ioos:station:USF.COMPS:C13:1,2017-02-05T07:05:00Z,26.0630,-83.0730,20.01,1111122 
COMPS,ioos:station:USF.COMPS:C13:1,2017-02-05T07:35:00Z,26.0630,-83.0730,20.28,1111122 
COMPS,ioos:station:USF.COMPS:C13:1,2017-02-05T08:05:00Z,26.0630,-83.0730,20.27,1111122 
COMPS,ioos:station:USF.COMPS:C13:1,2017-02-05T08:35:00Z,26.0630,-83.0730,20.31,1111122 
COMPS,ioos:station:USF.COMPS:C13:1,2017-02-05T09:05:00Z,26.0630,-83.0730,20.2,1111122 
COMPS,ioos:station:USF.COMPS:C13:1,2017-02-05T09:35:00Z,26.0630,-83.0730,20.29,1111122 
COMPS,ioos:station:USF.COMPS:C13:1,2017-02-05T10:05:00Z,26.0630,-83.0730,20.19,1111122 
COMPS,ioos:station:USF.COMPS:C13:1,2017-02-05T10:35:00Z,26.0630,-83.0730,20.07,1111122 
COMPS,ioos:station:USF.COMPS:C13:1,2017-02-05T11:05:00Z,26.0630,-83.0730,19.94,1111122 
COMPS,ioos:station:USF.COMPS:C13:1,2017-02-05T11:35:00Z,26.0630,-83.0730,19.9,1111122 
COMPS,ioos:station:USF.COMPS:C13:1,2017-02-05T12:05:00Z,26.0630,-83.0730,19.69,1111122 
COMPS,ioos:station:USF.COMPS:C13:1,2017-02-05T12:35:00Z,26.0630,-83.0730,19.53,1111122 
COMPS,ioos:station:USF.COMPS:C13:1,2017-02-05T13:05:00Z,26.0630,-83.0730,19.81,1111122 
COMPS,ioos:station:USF.COMPS:C13:1,2017-02-05T13:35:00Z,26.0630,-83.0730,19.84,1111122 
COMPS,ioos:station:USF.COMPS:C13:1,2017-02-05T14:05:00Z,26.0630,-83.0730,19.94,1111122 
COMPS,ioos:station:USF.COMPS:C13:1,2017-02-05T14:35:00Z,26.0630,-83.0730,19.7,1111122 
COMPS,ioos:station:USF.COMPS:C13:1,2017-02-05T15:05:00Z,26.0630,-83.0730,19.88,1111122 
COMPS,ioos:station:USF.COMPS:C13:1,2017-02-05T15:35:00Z,26.0630,-83.0730,19.77,1111122 
COMPS,ioos:station:USF.COMPS:C13:1,2017-02-05T16:05:00Z,26.0630,-83.0730,19.75,1111122 
COMPS,ioos:station:USF.COMPS:C13:1,2017-02-05T16:35:00Z,26.0630,-83.0730,19.85,1111122 
COMPS,ioos:station:USF.COMPS:C13:1,2017-02-05T17:05:00Z,26.0630,-83.0730,19.64,1111122 
COMPS,ioos:station:USF.COMPS:C13:1,2017-02-05T17:35:00Z,26.0630,-83.0730,19.71,1111122 
COMPS,ioos:station:USF.COMPS:C13:1,2017-02-05T18:05:00Z,26.0630,-83.0730,19.7,1111122 
COMPS,ioos:station:USF.COMPS:C13:1,2017-02-05T18:35:00Z,26.0630,-83.0730,19.9,1111122 
COMPS,ioos:station:USF.COMPS:C13:1,2017-02-05T19:05:00Z,26.0630,-83.0730,19.76,1111122 
COMPS,ioos:station:USF.COMPS:C13:1,2017-02-05T19:35:00Z,26.0630,-83.0730,19.71,1111122 
COMPS,ioos:station:USF.COMPS:C13:1,2017-02-05T20:05:00Z,26.0630,-83.0730,19.78,1111122 
COMPS,ioos:station:USF.COMPS:C13:1,2017-02-05T20:35:00Z,26.0630,-83.0730,20.18,1111122 
COMPS,ioos:station:USF.COMPS:C13:1,2017-02-05T21:05:00Z,26.0630,-83.0730,20.68,1111122 
COMPS,ioos:station:USF.COMPS:C13:1,2017-02-05T21:35:00Z,26.0630,-83.0730,21.68,1111122 
COMPS,ioos:station:USF.COMPS:C13:1,2017-02-05T22:05:00Z,26.0630,-83.0730,20.81,1111122 
COMPS,ioos:station:USF.COMPS:C13:1,2017-02-05T22:35:00Z,26.0630,-83.0730,19.63,1111122 
COMPS,ioos:station:USF.COMPS:C13:1,2017-02-05T23:05:00Z,26.0630,-83.0730,19.39,1111122 
COMPS,ioos:station:USF.COMPS:C13:1,2017-02-05T23:35:00Z,26.0630,-83.0730,19.14,1111122 
COMPS,ioos:station:USF.COMPS:C13:1,2017-02-06T00:05:00Z,26.0630,-83.0730,18.88,1111122 
COMPS,ioos:station:USF.COMPS:C13:1,2017-02-06T00:35:00Z,26.0630,-83.0730,19.23,1111122 
COMPS,ioos:station:USF.COMPS:C13:1,2017-02-06T01:05:00Z,26.0630,-83.0730,19.44,1111122 
COMPS,ioos:station:USF.COMPS:C13:1,2017-02-06T01:35:00Z,26.0630,-83.0730,19.26,1111122 
COMPS,ioos:station:USF.COMPS:C13:1,2017-02-06T02:05:00Z,26.0630,-83.0730,19.14,1111122 
COMPS,ioos:station:USF.COMPS:C13:1,2017-02-06T02:35:00Z,26.0630,-83.0730,19.26,1111122 
COMPS,ioos:station:USF.COMPS:C13:1,2017-02-06T03:05:00Z,26.0630,-83.0730,19.15,1111122 
COMPS,ioos:station:USF.COMPS:C13:1,2017-02-06T03:35:00Z,26.0630,-83.0730,19.23,1111122 
COMPS,ioos:station:USF.COMPS:C13:1,2017-02-06T04:05:00Z,26.0630,-83.0730,19.13,1111122 
COMPS,ioos:station:USF.COMPS:C13:1,2017-02-06T04:35:00Z,26.0630,-83.0730,19.42,1111122 
COMPS,ioos:station:USF.COMPS:C13:1,2017-02-06T05:05:00Z,26.0630,-83.0730,19.47,1111122 
COMPS,ioos:station:USF.COMPS:C13:1,2017-02-06T05:35:00Z,26.0630,-83.0730,19.49,1111122 
COMPS,ioos:station:USF.COMPS:C13:1,2017-02-06T06:05:00Z,26.0630,-83.0730,19.42,1111122 
COMPS,ioos:station:USF.COMPS:C13:1,2017-02-06T06:35:00Z,26.0630,-83.0730,19.49,1111122 
COMPS,ioos:station:USF.COMPS:C13:1,2017-02-06T07:05:00Z,26.0630,-83.0730,19.51,1111122 
COMPS,ioos:station:USF.COMPS:C13:1,2017-02-06T07:35:00Z,26.0630,-83.0730,19.46,1111122 
COMPS,ioos:station:USF.COMPS:C13:1,2017-02-06T08:05:00Z,26.0630,-83.0730,20.01,1111122 
COMPS,ioos:station:USF.COMPS:C13:1,2017-02-06T08:35:00Z,26.0630,-83.0730,20.12,1111122 
COMPS,ioos:station:USF.COMPS:C13:1,2017-02-06T09:05:00Z,26.0630,-83.0730,20.04,1111122 
COMPS,ioos:station:USF.COMPS:C13:1,2017-02-06T09:35:00Z,26.0630,-83.0730,20.24,1111122 
COMPS,ioos:station:USF.COMPS:C13:1,2017-02-06T10:05:00Z,26.0630,-83.0730,20.35,1111122 
COMPS,ioos:station:USF.COMPS:C13:1,2017-02-06T10:35:00Z,26.0630,-83.0730,20.37,1111122 
COMPS,ioos:station:USF.COMPS:C13:1,2017-02-06T11:05:00Z,26.0630,-83.0730,20.25,1111122 
COMPS,ioos:station:USF.COMPS:C13:1,2017-02-06T11:35:00Z,26.0630,-83.0730,19.97,1111122 
COMPS,ioos:station:USF.COMPS:C13:1,2017-02-06T12:05:00Z,26.0630,-83.0730,19.91,1111122 
COMPS,ioos:station:USF.COMPS:C13:1,2017-02-06T12:35:00Z,26.0630,-83.0730,19.86,1111122 
COMPS,ioos:station:USF.COMPS:C13:1,2017-02-06T13:05:00Z,26.0630,-83.0730,19.65,1111122 
COMPS,ioos:station:USF.COMPS:C13:1,2017-02-06T13:35:00Z,26.0630,-83.0730,19.63,1111122 
COMPS,ioos:station:USF.COMPS:C13:1,2017-02-06T14:05:00Z,26.0630,-83.0730,19.58,1111122 
COMPS,ioos:station:USF.COMPS:C13:1,2017-02-06T14:35:00Z,26.0630,-83.0730,19.59,1111122 
COMPS,ioos:station:USF.COMPS:C13:1,2017-02-06T15:05:00Z,26.0630,-83.0730,19.54,1111122 
COMPS,ioos:station:USF.COMPS:C13:1,2017-02-06T15:35:00Z,26.0630,-83.0730,19.72,1111122 
COMPS,ioos:station:USF.COMPS:C13:1,2017-02-06T16:05:00Z,26.0630,-83.0730,19.9,1111122 
COMPS,ioos:station:USF.COMPS:C13:1,2017-02-06T16:35:00Z,26.0630,-83.0730,20.23,1111122 
COMPS,ioos:station:USF.COMPS:C13:1,2017-02-06T17:05:00Z,26.0630,-83.0730,20.43,1111122 
COMPS,ioos:station:USF.COMPS:C13:1,2017-02-06T17:35:00Z,26.0630,-83.0730,20.89,1111122 
COMPS,ioos:station:USF.COMPS:C13:1,2017-02-06T18:05:00Z,26.0630,-83.0730,20.9,1111122 
COMPS,ioos:station:USF.COMPS:C13:1,2017-02-06T18:35:00Z,26.0630,-83.0730,21.07,1111122 
COMPS,ioos:station:USF.COMPS:C13:1,2017-02-06T20:05:00Z,26.0630,-83.0730,21.72,1111122 
COMPS,ioos:station:USF.COMPS:C13:1,2017-02-06T20:35:00Z,26.0630,-83.0730,21.81,1111122 
COMPS,ioos:station:USF.COMPS:C13:1,2017-02-06T21:05:00Z,26.0630,-83.0730,22.12,1111122 
COMPS,ioos:station:USF.COMPS:C13:1,2017-02-06T21:35:00Z,26.0630,-83.0730,22.33,1111122 
COMPS,ioos:station:USF.COMPS:C13:1,2017-02-06T22:05:00Z,26.0630,-83.0730,22.98,1111122 
COMPS,ioos:station:USF.COMPS:C13:1,2017-02-06T22:35:00Z,26.0630,-83.0730,23.52,1111122 
COMPS,ioos:station:USF.COMPS:C13:1,2017-02-06T23:05:00Z,26.0630,-83.0730,23.26,1111122 
COMPS,ioos:station:USF.COMPS:C13:1,2017-02-06T23:35:00Z,26.0630,-83.0730,22.46,1111122 